Orbital Elements at Epoch 2459000.5 (2020-May-31.0) TDB
Reference: JPL 22 (heliocentric ecliptic J2000)
Element | Value | Uncertainty (1-sigma) | Units |
e | .05592493639173336 | 4.5567e-08 | |
a | 2.982037804356128 | 2.3445e-08 | au |
q | 2.815267529829767 | 1.3251e-07 | au |
i | 10.12491505741901 | 7.7342e-06 | deg |
node | 349.1972236959254 | 2.5362e-05 | deg |
peri | 254.7805699290898 | 8.1352e-05 | deg |
M | 142.5893448153277 | 8.0873e-05 | deg |
tp | 2458255.506099827738 (2018-May-17.00609983) | 0.00041933 | TDB |
period | 1880.910557583151 5.15 | 2.2182e-05 6.073e-08 | d yr |
n | .191396660808038 | 2.2571e-09 | deg/d |
Q | 3.148808078882489 | 2.4756e-08 | au |
|
| | Orbit Determination Parameters
Additional Information
|